HS3MXC-2 Weather Reports


time (UTC)temp
C
wind
direction
speed
KPH
gust
KPH
rain 1hr
cm
rain 24hr
cm
rain mn
cm
humidity
%
barometer
mb
20260505123704 28 0.0 0.0 0.00 0.00 0.00 64 995.2
20260505123157 28 0.0 0.0 0.00 0.00 0.00 64 995.2
20260505122650 28 0.0 0.0 0.00 0.00 0.00 64 995.1
20260505114551 28 0.0 0.0 0.00 0.00 0.00 63 995.1
20260505113532 28 0.0 0.0 0.00 0.00 0.00 62 995.1
20260505113024 28 0.0 0.0 0.00 0.00 0.00 61 995.2
20260505112517 28 0.0 0.0 0.00 0.00 0.00 62 995.1
20260505112006 28 0.0 0.0 0.00 0.00 0.00 61 995.1
20260505111458 28 0.0 0.0 0.00 0.00 0.00 60 994.9
20260505110952 28 0.0 0.0 0.00 0.00 0.00 61 994.8
20260505110445 28 0.0 0.0 0.00 0.00 0.00 60 994.7
20260505101823 28 0.0 0.0 0.00 0.00 0.00 59 994.5
20260505100806 28 0.0 0.0 0.00 0.00 0.00 56 994.4
20260505100259 28 0.0 0.0 0.00 0.00 0.00 57 994.2
20260505095753 28 0.0 0.0 0.00 0.00 0.00 56 994.2
20260505095246 28 0.0 0.0 0.00 0.00 0.00 54 994.2
20260505094739 27 0.0 0.0 0.00 0.00 0.00 55 994.2
20260505094232 26 0.0 0.0 0.00 0.00 0.00 56 994.1
20260505093725 24 0.0 0.0 0.00 0.00 0.00 39 994.0
20260505092707 25 0.0 0.0 0.00 0.00 0.00 41 993.7
20260505092157 24 0.0 0.0 0.00 0.00 0.00 40 994.0
20260505091651 25 0.0 0.0 0.00 0.00 0.00 41 994.3
20260505091143 25 0.0 0.0 0.00 0.00 0.00 41 994.2
20260505090128 25 0.0 0.0 0.00 0.00 0.00 41 994.0
20260505085622 25 0.0 0.0 0.00 0.00 0.00 39 994.1
20260505085115 25 0.0 0.0 0.00 0.00 0.00 39 994.2
20260505084604 25 0.0 0.0 0.00 0.00 0.00 38 994.2
20260505084058 25 0.0 0.0 0.00 0.00 0.00 37 994.0
20260505083550 25 0.0 0.0 0.00 0.00 0.00 37 993.7
20260505083044 25 0.0 0.0 0.00 0.00 0.00 38 993.3
20260505082535 25 0.0 0.0 0.00 0.00 0.00 38 993.6
20260505081521 25 0.0 0.0 0.00 0.00 0.00 37 993.8
20260505081012 25 0.0 0.0 0.00 0.00 0.00 37 993.9
20260505080503 25 0.0 0.0 0.00 0.00 0.00 38 993.8
20260505075954 25 0.0 0.0 0.00 0.00 0.00 38 993.8
20260505075447 25 0.0 0.0 0.00 0.00 0.00 39 993.8
20260505074941 25 0.0 0.0 0.00 0.00 0.00 40 994.0
20260505074434 25 0.0 0.0 0.00 0.00 0.00 38 994.0
20260505073927 26 0.0 0.0 0.00 0.00 0.00 39 994.0
20260505073420 25 0.0 0.0 0.00 0.00 0.00 38 994.0
20260505072911 25 0.0 0.0 0.00 0.00 0.00 39 994.1
20260505071842 25 0.0 0.0 0.00 0.00 0.00 39 994.2
20260505070825 24 0.0 0.0 0.00 0.00 0.00 43 994.4
20260505070318 25 0.0 0.0 0.00 0.00 0.00 43 994.5
20260505065810 25 0.0 0.0 0.00 0.00 0.00 44 994.6
20260505064750 25 0.0 0.0 0.00 0.00 0.00 45 994.9
20260505063735 25 0.0 0.0 0.00 0.00 0.00 45 995.1
20260505063222 25 0.0 0.0 0.00 0.00 0.00 46 995.2
20260505062712 25 0.0 0.0 0.00 0.00 0.00 46 995.4
20260505062204 26 0.0 0.0 0.00 0.00 0.00 45 995.5
20260505061654 26 0.0 0.0 0.00 0.00 0.00 45 995.7
20260505061145 26 0.0 0.0 0.00 0.00 0.00 45 995.8
20260505055623 26 0.0 0.0 0.00 0.00 0.00 47 996.1
20260505055116 27 0.0 0.0 0.00 0.00 0.00 50 996.2
20260505054602 28 0.0 0.0 0.00 0.00 0.00 53 996.4
20260505054055 30 0.0 0.0 0.00 0.00 0.00 53 996.5
20260505053040 31 0.0 0.0 0.00 0.00 0.00 53 996.8
20260505052531 30 0.0 0.0 0.00 0.00 0.00 56 996.9
20260505052023 30 0.0 0.0 0.00 0.00 0.00 61 997.0
20260505051517 30 0.0 0.0 0.00 0.00 0.00 58 997.1
20260505051010 29 0.0 0.0 0.00 0.00 0.00 63 997.1
20260505050501 26 0.0 0.0 0.00 0.00 0.00 40 997.1
20260505041340 25 0.0 0.0 0.00 0.00 0.00 40 998.0
20260505040324 25 0.0 0.0 0.00 0.00 0.00 41 998.1
20260505034758 25 0.0 0.0 0.00 0.00 0.00 41 998.2
20260505034251 25 0.0 0.0 0.00 0.00 0.00 42 998.2
20260505033234 25 0.0 0.0 0.00 0.00 0.00 45 998.3
20260505032220 23 0.0 0.0 0.00 0.00 0.00 48 998.3
20260505031712 24 0.0 0.0 0.00 0.00 0.00 50 998.3
20260505030659 24 0.0 0.0 0.00 0.00 0.00 50 998.4
20260505024620 26 0.0 0.0 0.00 0.00 0.00 54 998.3
20260505024104 26 0.0 0.0 0.00 0.00 0.00 53 998.3
20260505023553 26 0.0 0.0 0.00 0.00 0.00 55 998.3
20260505023047 25 0.0 0.0 0.00 0.00 0.00 56 998.3
20260505022025 26 0.0 0.0 0.00 0.00 0.00 61 998.5
20260505021516 25 0.0 0.0 0.00 0.00 0.00 60 998.5
20260505021005 25 0.0 0.0 0.00 0.00 0.00 53 998.5
20260505015436 26 0.0 0.0 0.00 0.00 0.00 56 998.4
20260505013910 26 0.0 0.0 0.00 0.00 0.00 63 998.3
20260505013401 26 0.0 0.0 0.00 0.00 0.00 66 998.3
20260505012854 27 0.0 0.0 0.00 0.00 0.00 70 998.4
20260505012347 28 0.0 0.0 0.00 0.00 0.00 73 998.4
20260505011840 28 0.0 0.0 0.00 0.00 0.00 73 998.4
20260505011333 28 0.0 0.0 0.00 0.00 0.00 73 998.5
20260505010826 28 0.0 0.0 0.00 0.00 0.00 73 998.4
20260505010318 28 0.0 0.0 0.00 0.00 0.00 74 998.4
20260505005808 28 0.0 0.0 0.00 0.00 0.00 74 998.3
20260505004743 28 0.0 0.0 0.00 0.00 0.00 75 998.2
20260505004236 28 0.0 0.0 0.00 0.00 0.00 75 998.1
20260505003729 28 0.0 0.0 0.00 0.00 0.00 76 998.0
20260505003223 28 0.0 0.0 0.00 0.00 0.00 76 998.0
20260505002716 28 0.0 0.0 0.00 0.00 0.00 76 998.0
20260505002209 28 0.0 0.0 0.00 0.00 0.00 77 997.9
20260505001701 28 0.0 0.0 0.00 0.00 0.00 77 997.9
20260505001154 28 0.0 0.0 0.00 0.00 0.00 78 997.9
20260505000138 28 0.0 0.0 0.00 0.00 0.00 79 997.8
20260504235631 28 0.0 0.0 0.00 0.00 0.00 79 997.8
20260504235124 28 0.0 0.0 0.00 0.00 0.00 79 997.7
20260504234617 28 0.0 0.0 0.00 0.00 0.00 78 997.5
20260504234110 28 0.0 0.0 0.00 0.00 0.00 76 997.4
20260504233604 28 0.0 0.0 0.00 0.00 0.00 74 997.3
20260504233057 28 0.0 0.0 0.00 0.00 0.00 73 997.1
20260504232550 28 0.0 0.0 0.00 0.00 0.00 73 997.0
20260504232043 28 0.0 0.0 0.00 0.00 0.00 73 997.1
20260504231536 28 0.0 0.0 0.00 0.00 0.00 73 997.1
20260504230522 28 0.0 0.0 0.00 0.00 0.00 73 997.1
20260504225508 28 0.0 0.0 0.00 0.00 0.00 73 997.1
20260504224454 28 0.0 0.0 0.00 0.00 0.00 72 997.0
20260504223946 28 0.0 0.0 0.00 0.00 0.00 72 997.0
20260504223438 28 0.0 0.0 0.00 0.00 0.00 72 996.9
20260504222931 28 0.0 0.0 0.00 0.00 0.00 71 996.9
20260504222425 28 0.0 0.0 0.00 0.00 0.00 71 996.9
20260504221917 28 0.0 0.0 0.00 0.00 0.00 71 996.9
20260504221411 28 0.0 0.0 0.00 0.00 0.00 71 996.9
20260504220904 28 0.0 0.0 0.00 0.00 0.00 71 996.9
20260504220356 28 0.0 0.0 0.00 0.00 0.00 71 996.9
20260504215848 28 0.0 0.0 0.00 0.00 0.00 71 997.0
20260504215342 28 0.0 0.0 0.00 0.00 0.00 71 997.0
20260504214834 28 0.0 0.0 0.00 0.00 0.00 71 996.9
20260504214327 28 0.0 0.0 0.00 0.00 0.00 71 996.8
20260504213820 28 0.0 0.0 0.00 0.00 0.00 71 996.8
20260504213312 28 0.0 0.0 0.00 0.00 0.00 71 996.7
20260504212806 28 0.0 0.0 0.00 0.00 0.00 71 996.5
20260504212259 28 0.0 0.0 0.00 0.00 0.00 71 996.5
20260504211245 28 0.0 0.0 0.00 0.00 0.00 71 996.4
20260504210732 28 0.0 0.0 0.00 0.00 0.00 71 996.3
20260504210225 28 0.0 0.0 0.00 0.00 0.00 71 996.3
20260504205719 28 0.0 0.0 0.00 0.00 0.00 71 996.3
20260504205212 28 0.0 0.0 0.00 0.00 0.00 71 996.4
20260504204704 28 0.0 0.0 0.00 0.00 0.00 71 996.4
20260504204158 28 0.0 0.0 0.00 0.00 0.00 71 996.4
20260504203651 28 0.0 0.0 0.00 0.00 0.00 71 996.4
20260504203144 28 0.0 0.0 0.00 0.00 0.00 71 996.3
20260504202638 28 0.0 0.0 0.00 0.00 0.00 71 996.3
20260504202130 28 0.0 0.0 0.00 0.00 0.00 71 996.2
20260504201623 28 0.0 0.0 0.00 0.00 0.00 71 996.2
20260504201116 28 0.0 0.0 0.00 0.00 0.00 71 996.2
20260504200609 28 0.0 0.0 0.00 0.00 0.00 71 996.2
20260504195555 28 0.0 0.0 0.00 0.00 0.00 70 996.3
20260504195047 28 0.0 0.0 0.00 0.00 0.00 70 996.4
20260504194540 28 0.0 0.0 0.00 0.00 0.00 70 996.4
20260504194032 28 0.0 0.0 0.00 0.00 0.00 70 996.4
20260504193525 28 0.0 0.0 0.00 0.00 0.00 70 996.4
20260504193018 28 0.0 0.0 0.00 0.00 0.00 70 996.4
20260504192512 28 0.0 0.0 0.00 0.00 0.00 70 996.5
20260504191457 28 0.0 0.0 0.00 0.00 0.00 70 996.4
20260504190949 28 0.0 0.0 0.00 0.00 0.00 70 996.4
20260504185934 28 0.0 0.0 0.00 0.00 0.00 70 996.5
20260504185427 28 0.0 0.0 0.00 0.00 0.00 70 996.6
20260504184918 28 0.0 0.0 0.00 0.00 0.00 70 996.6
20260504184412 28 0.0 0.0 0.00 0.00 0.00 70 996.6
20260504183905 28 0.0 0.0 0.00 0.00 0.00 70 996.6
20260504183351 28 0.0 0.0 0.00 0.00 0.00 70 996.6
20260504182330 28 0.0 0.0 0.00 0.00 0.00 70 996.6
20260504181823 28 0.0 0.0 0.00 0.00 0.00 70 996.6
20260504181317 28 0.0 0.0 0.00 0.00 0.00 70 996.7
20260504180303 28 0.0 0.0 0.00 0.00 0.00 70 996.7
20260504175756 28 0.0 0.0 0.00 0.00 0.00 70 996.7
20260504175249 28 0.0 0.0 0.00 0.00 0.00 69 996.7
20260504174234 28 0.0 0.0 0.00 0.00 0.00 69 996.8
20260504173727 28 0.0 0.0 0.00 0.00 0.00 69 997.0
20260504173220 28 0.0 0.0 0.00 0.00 0.00 69 997.1
20260504172713 28 0.0 0.0 0.00 0.00 0.00 69 997.2
20260504172205 28 0.0 0.0 0.00 0.00 0.00 69 997.2
20260504171151 28 0.0 0.0 0.00 0.00 0.00 69 997.3
20260504170644 28 0.0 0.0 0.00 0.00 0.00 69 997.3
20260504141141 29 0.0 0.0 0.00 0.00 0.00 67 996.7
20260504140629 29 0.0 0.0 0.00 0.00 0.00 67 996.7
20260504140119 29 0.0 0.0 0.00 0.00 0.00 67 996.6
20260504130429 30 0.0 0.0 0.00 0.00 0.00 66 996.7